Flag for India Weather past 2 weeks in Mumbai, Maharashtra, India

Now
81 °F

Clear.


Feels Like: 80 °F
Forecast: 74 / 87 °F
Wind: 8 mph from Northeast

Location: Bombay / Santacruz

Current Time: Dec 21, 2014 at 10:41:52 AM

Latest Report: Dec 21, 2014 at 10:10 AM


Visibility: 2 mi

Pressure: 29.95 "Hg

Humidity: 34%

Dew point: 50 °F

Location of MumbaiLocation

Historic Weather in Mumbai — Graph

°F

Mumbai temperature yesterday

Maximum temperature yesterday: 88 °F (at 12:40 PM)
Minimum temperature yesterday: 73 °F (at 3:40 AM)
Average temperature yesterday: 79 °F

Past Weeks' High & Low Weather Summary

 TemperatureHumidityPressure
High93 °F (Dec 6, 1:40 PM)94% (Dec 12, 8:10 AM)30.04 "Hg (Dec 12, 8:10 AM)
Low66 °F (Dec 15, 4:10 AM)18% (Dec 15, 2:40 PM)29.80 "Hg (Dec 10, 2:40 PM)
Average80 °F49%29.92 "Hg
* Reported Dec 6 8:40 AM — Dec 21 9:10 AM, Mumbai, Weather by CustomWeather, © 2014

Note: Actual official high and low records may vary slightly from our data, if they occured in-between our weather recording intervals... More about our weather records

Advertising

Mumbai weather history for previous 24 hours

 ConditionsComfort  
Time TempWeatherWind HumidityBarometerVisibility
9:10 AM
Dec 21
77 °FClear.6 mph42%29.95 "Hg1 mi
8:40 AM75 °FClear.6 mph47%29.92 "Hg1 mi
7:40 AM68 °FClear.No wind69%29.89 "Hg1 mi
6:40 AM68 °FClear.No wind69%29.86 "Hg1 mi
5:40 AM70 °FClear.No wind64%29.86 "Hg1 mi
5:10 AM70 °FClear.3 mph60%29.83 "Hg1 mi
4:40 AM73 °FClear.3 mph57%29.83 "Hg1 mi
4:10 AM73 °FClear.No wind57%29.86 "Hg1 mi
3:40 AM73 °FClear.No wind57%29.86 "Hg1 mi
3:10 AM75 °FClear.3 mph54%29.86 "Hg1 mi
2:40 AM75 °FClear.No wind54%29.86 "Hg1 mi
2:10 AM77 °FPassing clouds.No wind51%29.89 "Hg1 mi
1:40 AM75 °FHaze.No wind57%29.89 "Hg1 mi
11:40 PM
Dec 20
77 °FHaze.6 mph65%29.92 "Hg1 mi
9:40 PM79 °FPassing clouds.No wind65%29.92 "Hg1 mi
9:10 PM79 °FPassing clouds.6 mph65%29.92 "Hg1 mi
8:40 PM79 °FPassing clouds.No wind61%29.92 "Hg1 mi
8:10 PM81 °FHaze.3 mph58%29.92 "Hg1 mi
7:40 PM81 °FPassing clouds.7 mph54%29.89 "Hg1 mi
7:10 PM81 °FPassing clouds.5 mph51%29.89 "Hg1 mi
6:40 PM82 °FPassing clouds.6 mph48%29.89 "Hg1 mi
6:10 PM82 °FScattered clouds.6 mph48%29.86 "Hg2 mi
5:40 PM84 °FPassing clouds.6 mph40%29.86 "Hg2 mi
12:40 PM88 °FClear.6 mph29%29.95 "Hg2 mi
12:10 PM86 °FClear.6 mph31%29.98 "Hg2 mi
11:40 AM84 °FClear.7 mph33%29.98 "Hg2 mi
11:10 AM82 °FPassing clouds.7 mph35%30.01 "Hg2 mi
10:40 AM82 °FPassing clouds.8 mph32%30.01 "Hg2 mi
10:10 AM81 °FPassing clouds.9 mph34%30.01 "Hg2 mi
Weather by CustomWeather, © 2014

See weather overviewHow to use our weather pages